SL-14 DEB

Satellite information

Favourite Embed

Satellite Type and Status

DEBRISIN ORBIT

Key statistics

Satellite SL-14 DEB at a glance.

Uptime

12488

Days in orbit

Revolutions

≈ 13.8

Per day

Orbit

LEO

Low Earth Orbit

Inclination

82.6

Latest

Satellite identification and parameters

Extended collection of information and parameters for SL-14 DEB.

Object identification

Identified? True

Debris? True

Object name: SL-14 DEB

International designator: 1991-056CC

Object number (NORAD): 45338

Object ID (CCSDS): 45338

Country: COMMONWEALTH OF INDEPENDENT STATES (CIS)

Current information (Y/N): Y

RCS size: SMALL

Orbital parameters

Period: 104.576 minutes

Inclination: 82.5605 deg

SMA: 7352.717 km

Apoapsis: 1086.57 km

Periapsis: 862.595 km

RAAN: 211.0587 deg

Eccentricy: 0.01523081

Argument of periapsis: 332.5477 deg

Mean anomaly: 26.769 deg

Mean motion: 13.7699052 rev/day

Mean motion (dot): 0.00014155 rev/day2

B* drag term: 0.013145388 1/REarth

Two-line elements (TLE)

Creation date: Oct. 23, 2025, 2:46 a.m.

Reference frame: TEME

Reference center: EARTH

Epoch: Oct. 22, 2025, 12:16 p.m. UTC

TLE line 0: 0 SL-14 DEB

TLE line 1: 1 45338U 91056CC 25295.51139932 .00014155 00000-0 13145-1 0 9991

TLE line 2: 2 45338 82.5605 211.0587 0152308 332.5477 26.7690 13.76990520278969

Live tracking on map

Real-time ground track for satellite SL-14 DEB.

In-orbit conjunctions

A list of the most updated potential collisions computed for object SL-14 DEB.

Target Orbit TCA Probability of collision Miss distance Type
MOS 1A (MOMO 1) SSO 2025-04-30 22:54:48 0.0001118759 370.0 (m) PAYLOAD
GGSE 3 LEO 2025-03-21 03:45:54 0.0002196244 872.0 (m) PAYLOAD

Associated space launch

Third generation meteorological satellite

SL-14 DEB was lifted into orbit during the mission ‘Tsiklon-3 | Meteor-3 5’, on board a Tsiklon-3 space rocket.

The launch took place on Aug. 15, 1991, 9:15 a.m. from 32/2.

For more information about the launch, click the button.

Launch to space Tsiklon-3 | Meteor-3 5
Tsiklon-3 | Meteor-3 5

Agency: N/A

Status: Launch Successful

Launch date: Aug. 15, 1991, 9:15 a.m. UTC

Rocket: Tsiklon-3

Launch pad: 32/2

Location: Plesetsk Cosmodrome, Russian Federation

...

Latest news about this satellite

There are no fresh news available about this satellite. Check back as we update our databases every day.


Newsletter sign-up

Weekly statistics, charts and insights to help you stay on top of the space industry.